GFSGBSN_sfc_wetblb_231.txt.gz
Wetbulb
53.60 53.60 54.02 54.71 55.11 55.75 55.89 55.99 55.67 56.09 56.41 56.28 56.13 59.04 59.80 59.81 59.62 58.68 57.68 56.93 57.05 57.23 57.79 58.07 57.10 56.67 51.57 47.20 47.80 53.80 62.75 62.80 56.77 55.84 51.83 49.68 46.94 47.14 44.35 44.75 45.11 44.61 45.94 47.90 49.07 49.30 47.99
53.55 53.85 53.94 54.29 54.76 54.07 53.92 55.60 55.66 55.18 54.87 55.37 55.75 55.61 55.57 59.03 58.80 58.44 57.63 56.85 56.41 56.72 57.39 57.68 56.49 55.71 48.55 42.74 53.32 55.40 57.04 56.61 54.59 54.28 53.99 52.40 49.61 50.20 47.75 46.52 44.73 47.20 48.30 48.22 47.64 48.04 47.56
53.16 53.62 53.96 54.01 54.33 54.48 54.31 54.29 55.12 54.89 54.49 54.72 55.02 55.20 54.80 57.41 58.23 58.01 57.51 56.60 56.00 56.08 57.14 57.28 56.46 52.71 46.97 46.88 53.86 52.99 52.92 54.37 53.66 53.95 51.80 53.02 52.60 49.83 48.97 47.57 49.98 47.48 45.25 47.26 46.83 46.04 46.77
53.94 54.01 53.74 53.70 53.66 53.78 53.94 53.96 54.23 55.20 54.32 54.50 54.78 55.10 54.70 54.80 56.91 57.14 56.82 55.89 55.59 56.21 57.09 56.62 56.20 48.73 43.56 55.00 54.11 53.12 52.09 52.42 53.47 54.50 53.64 54.90 54.84 51.97 49.45 50.43 48.51 44.29 42.93 40.59 46.88 46.21 48.08
53.82 53.86 54.19 53.75 53.56 53.41 53.38 53.77 54.03 54.53 54.79 54.28 54.59 54.72 54.26 53.78 53.69 56.11 55.73 55.30 55.35 56.73 56.51 55.40 48.47 45.66 43.03 55.42 51.44 53.44 54.26 51.71 52.65 53.77 54.67 57.58 53.63 49.55 48.85 43.64 41.24 40.54 37.11 39.74 43.94 47.67 46.86
53.66 53.94 53.99 53.91 53.63 53.44 53.45 53.33 53.27 53.47 54.07 53.94 53.86 54.09 54.28 53.78 53.25 54.57 54.56 55.08 56.22 55.18 54.36 54.59 52.60 43.52 47.32 47.11 52.42 53.57 52.46 53.24 52.22 53.61 52.06 51.39 47.49 44.32 42.66 41.05 36.13 37.00 37.77 40.34 41.27 44.39 45.27
53.49 53.85 53.81 53.65 53.69 53.78 53.76 53.53 53.23 52.98 53.16 53.70 53.45 53.45 54.05 53.71 53.60 54.04 54.34 53.55 48.81 46.02 48.44 44.83 44.38 44.20 47.32 50.98 53.67 52.39 52.55 52.09 51.77 50.56 44.78 48.45 42.69 40.53 45.24 43.60 44.11 42.16 40.40 39.27 42.93 45.29 43.95
53.25 53.44 53.58 53.66 53.64 53.82 54.02 53.76 53.08 52.81 52.77 53.51 53.37 53.21 53.65 53.60 53.31 53.47 55.28 48.11 47.12 46.94 41.70 48.49 48.50 47.73 49.26 50.17 45.46 49.15 52.95 46.87 47.13 43.50 47.32 43.50 41.70 47.23 46.71 45.70 44.49 43.24 40.79 41.27 45.23 47.45 45.31
52.71 52.79 53.16 53.35 53.56 53.71 53.71 53.71 53.09 52.71 52.52 52.71 53.14 52.61 52.80 53.22 53.10 52.35 52.67 50.12 52.69 50.84 41.24 44.86 47.19 46.09 47.57 48.67 44.21 46.05 51.09 48.57 46.57 43.75 44.93 42.95 44.64 48.99 46.32 44.08 43.00 42.69 41.30 42.27 41.71 44.62 44.23
51.79 51.87 52.25 52.56 52.83 53.14 53.25 53.29 52.96 52.73 52.48 52.29 52.71 52.32 51.53 52.56 49.34 50.99 50.71 54.22 52.41 51.79 35.38 36.98 42.48 45.33 46.87 46.32 41.81 49.63 52.73 49.95 47.07 44.08 45.48 43.94 48.20 46.62 45.08 43.67 44.82 39.54 45.89 44.87 43.13 39.51 35.46
51.18 51.29 51.44 51.87 52.04 51.83 51.84 52.08 52.41 52.54 52.39 52.19 52.19 52.32 51.42 51.81 50.75 48.85 52.69 54.75 52.53 45.45 21.96 39.03 42.23 50.37 46.94 42.65 43.41 44.96 51.22 50.90 45.26 45.30 46.45 42.34 44.31 45.01 43.06 44.52 47.16 42.46 47.20 44.92 44.15 40.72 37.33
50.49 50.91 51.27 51.35 51.21 51.30 51.50 51.48 51.75 51.85 51.87 52.00 52.11 52.01 51.45 50.35 49.78 52.02 55.55 54.36 50.01 32.72 22.67 36.79 42.80 40.66 40.30 42.11 41.91 44.37 46.38 50.28 50.38 46.39 45.52 44.53 48.00 47.50 46.72 48.81 47.84 48.33 44.75 43.34 41.56 39.24 34.44
50.16 50.31 50.79 50.96 50.95 51.12 51.32 51.44 51.34 51.55 51.40 51.52 51.47 51.69 50.71 50.66 45.34 51.91 54.87 49.72 31.78 26.51 38.37 35.08 38.53 40.90 39.94 38.49 39.84 42.46 41.86 42.26 42.47 38.98 39.38 42.99 44.38 46.14 48.69 43.89 47.33 45.53 41.07 33.28 31.73 32.84 32.89
49.74 49.67 50.02 50.40 50.65 50.79 51.11 51.16 51.20 51.16 51.16 51.15 50.99 50.89 50.44 50.11 51.47 52.55 51.73 39.61 26.18 34.12 34.53 41.73 41.63 40.66 37.08 39.78 39.35 40.53 40.38 40.09 45.76 44.41 39.91 37.64 35.03 43.97 47.10 45.15 43.80 44.21 43.37 34.10 29.54 30.65 34.08
49.73 49.78 49.81 49.92 50.30 50.40 50.54 50.55 50.76 50.93 50.81 50.82 50.68 48.70 46.59 49.41 51.08 49.95 44.98 29.54 30.39 34.83 37.62 37.78 40.69 36.57 36.90 39.77 39.12 39.61 39.43 40.59 44.17 46.35 39.49 38.26 37.87 46.22 48.70 47.80 47.87 42.20 40.11 45.71 37.34 35.24 29.79
50.00 50.07 49.94 49.88 49.80 49.95 50.00 50.23 50.26 50.56 50.63 50.46 47.17 44.89 43.28 48.43 50.76 46.37 36.69 32.07 34.76 40.66 41.52 40.12 35.65 38.79 34.46 37.19 37.14 38.07 37.72 42.27 44.21 47.55 48.24 42.42 36.47 44.12 46.64 49.01 47.74 45.59 46.24 39.33 39.89 32.87 31.79
49.43 49.43 49.70 49.61 49.53 49.36 49.51 49.79 49.95 49.85 50.46 50.43 45.51 38.18 42.40 48.93 48.66 39.34 30.35 32.43 36.49 42.13 43.21 38.37 36.52 37.53 38.08 37.36 38.44 37.93 38.88 41.98 46.11 46.62 48.44 44.67 39.96 39.03 44.38 42.46 41.74 40.80 41.98 43.05 42.31 33.71 30.63
48.61 48.58 48.65 48.90 48.98 49.04 49.23 49.51 49.48 49.40 49.76 48.40 42.98 32.13 44.17 48.13 35.98 34.32 31.44 34.06 40.57 39.79 42.82 41.59 43.12 40.56 39.27 39.96 38.36 37.71 38.33 41.43 46.32 47.69 43.48 46.44 40.58 35.51 39.60 43.71 47.41 46.12 43.45 43.27 36.87 33.44 31.01
48.33 48.50 48.45 48.62 48.60 48.55 48.69 48.78 48.55 48.98 49.30 46.02 38.23 35.03 44.83 44.99 29.59 30.90 34.60 35.34 39.33 39.50 39.85 40.96 40.85 42.63 43.62 40.25 36.81 39.55 40.32 46.62 46.22 45.97 44.32 45.93 39.19 30.88 35.20 40.85 44.86 41.61 43.69 43.75 41.46 34.22 35.59
48.46 48.81 49.05 49.34 49.28 48.96 48.84 48.51 48.50 48.91 49.40 46.81 35.53 30.07 35.98 40.18 38.16 33.38 32.76 33.64 35.08 41.79 41.00 42.83 42.44 43.29 42.13 39.05 42.43 40.29 40.71 43.93 46.00 46.03 47.25 47.96 39.86 37.83 33.46 35.59 41.14 38.68 41.71 43.49 41.15 36.81 37.20
48.50 49.27 49.52 49.47 49.70 49.44 49.07 48.74 49.07 49.09 49.18 45.41 35.23 31.62 32.96 29.94 32.84 34.13 35.52 36.19 34.71 36.42 41.84 42.87 41.00 41.63 39.72 37.16 38.10 39.91 41.38 39.67 41.71 44.90 45.80 45.70 36.96 39.76 40.80 41.62 40.47 41.09 41.57 42.44 40.71 40.81 37.13
48.28 49.22 48.84 48.10 47.90 48.23 48.81 48.82 49.08 49.15 49.27 40.51 32.46 32.07 34.40 33.07 35.25 34.21 34.54 33.46 35.49 38.87 39.67 39.50 38.81 40.70 41.94 37.88 39.16 37.60 38.23 38.15 38.65 41.05 41.95 43.79 34.96 40.17 37.99 42.25 42.25 39.36 41.16 42.54 42.86 42.53 42.41
49.04 48.99 48.09 47.76 48.22 48.41 48.74 49.47 49.38 49.08 47.97 38.81 35.16 37.79 34.96 32.16 32.89 31.52 33.16 34.54 36.55 39.90 42.19 43.04 41.43 40.30 40.02 41.00 42.28 42.31 43.07 42.07 40.80 39.79 38.11 39.80 38.11 35.49 34.91 39.44 38.91 34.39 38.61 41.04 42.13 42.23 42.81
48.85 48.92 48.42 48.13 48.25 48.62 49.39 49.68 49.07 49.01 46.04 41.02 38.94 37.72 31.90 28.35 32.65 32.58 34.39 36.42 37.62 39.16 38.50 42.35 43.33 40.89 41.92 44.12 43.54 42.09 41.22 41.00 41.48 40.57 41.39 36.70 40.25 35.56 31.92 35.98 29.46 38.25 39.65 44.00 42.98 42.55 41.54
48.05 48.59 48.70 48.65 48.04 47.99 48.65 48.83 48.78 47.35 46.82 41.55 37.69 36.53 32.29 25.16 34.22 33.98 34.83 35.54 38.39 40.50 39.88 41.52 43.16 44.82 44.73 41.85 35.26 36.34 33.08 34.53 34.86 39.98 40.13 40.57 36.33 31.48 30.19 31.88 35.12 36.98 35.73 38.72 39.90 38.45 43.56
47.87 48.74 48.70 48.40 48.30 48.01 48.67 48.63 47.90 47.13 47.72 43.76 38.76 39.07 36.41 31.66 33.31 37.50 35.45 36.71 36.12 36.80 36.16 35.62 43.01 45.13 41.90 36.42 33.41 30.40 28.63 32.63 30.67 33.20 40.83 39.98 39.12 35.62 30.46 29.41 28.96 31.58 36.52 42.80 42.86 35.62 41.80
48.52 48.66 48.28 49.00 49.00 48.09 48.26 48.54 47.73 47.40 47.50 44.73 41.46 39.93 38.86 32.62 36.96 39.28 36.56 36.21 38.86 38.71 37.72 35.06 36.53 36.68 40.24 33.56 31.81 31.38 30.20 35.08 28.95 29.43 29.99 32.09 32.13 31.95 30.07 29.44 31.33 36.48 36.18 40.32 33.08 33.51 39.50
48.16 48.23 48.18 48.73 48.70 48.19 48.08 48.00 47.92 47.84 48.05 45.08 40.74 38.82 38.08 33.11 34.35 37.79 40.28 39.49 39.85 39.82 34.35 33.81 36.16 34.59 34.15 33.23 32.66 31.36 30.77 32.04 31.37 33.92 32.01 30.74 29.61 29.84 29.88 27.99 28.72 38.04 34.84 33.40 35.47 32.89 35.47
47.78 48.04 47.91 48.24 48.19 48.58 48.36 48.36 48.39 48.15 48.18 46.83 38.79 38.26 38.43 36.05 34.39 38.35 39.38 40.64 40.71 43.00 38.10 36.26 37.72 34.98 37.50 33.99 32.69 32.49 30.97 31.54 30.74 28.48 36.76 31.50 33.30 31.81 32.68 32.47 36.00 35.19 33.07 33.84 33.62 33.40 33.41

GFSGBSN_sfc_wetblb_234.txt.gz
Wetbulb
52.43 52.76 52.77 52.61 53.09 53.33 53.56 54.15 55.33 55.93 55.47 54.81 55.03 54.94 55.73 55.78 56.59 59.16 58.12 57.09 57.18 57.38 57.16 57.86 57.89 56.75 51.07 45.25 46.59 53.45 61.99 62.03 55.28 52.99 50.58 48.72 46.13 44.84 43.12 44.24 43.88 43.32 44.77 46.50 47.77 47.80 47.09
52.75 52.86 52.86 53.04 52.91 53.10 53.09 53.67 54.26 54.77 55.49 54.80 54.56 54.71 55.13 54.93 55.25 57.73 58.11 57.09 56.49 56.62 56.76 57.67 57.43 55.85 46.92 41.42 52.70 53.10 53.55 56.06 53.84 53.40 51.40 48.43 46.34 47.99 45.74 44.89 43.89 45.75 45.35 46.33 45.57 45.73 46.69
52.50 53.07 53.62 53.87 53.83 53.55 53.21 54.08 54.27 54.24 54.57 54.82 54.57 54.79 55.11 54.67 54.65 54.81 57.64 56.93 56.12 56.03 56.49 57.81 56.94 52.26 45.74 45.89 52.94 52.64 52.35 52.52 53.33 53.32 50.89 52.79 51.81 48.08 47.82 45.49 48.10 46.41 43.76 45.10 45.28 45.70 46.23
52.52 52.73 52.78 53.40 53.61 53.48 53.60 53.74 53.86 54.09 54.31 54.80 54.45 54.59 54.81 54.45 53.98 53.56 54.01 56.18 55.86 56.07 56.59 57.18 56.06 48.26 43.01 53.75 53.92 52.28 51.55 50.86 52.50 52.53 52.35 53.75 53.08 50.91 48.96 49.12 47.13 43.10 41.77 38.29 44.35 44.79 46.07
53.34 53.42 53.36 53.75 53.56 53.49 53.20 53.26 53.57 53.92 54.21 54.12 54.57 54.38 54.06 54.08 53.41 53.34 53.55 54.53 55.54 56.44 56.88 56.00 47.75 45.14 42.30 54.35 50.19 52.84 52.77 50.06 51.27 51.83 52.66 56.01 52.64 48.61 48.00 43.42 40.18 39.59 36.56 37.51 42.14 46.55 45.23
53.18 53.30 53.81 54.25 54.21 53.88 53.63 53.49 53.28 53.42 53.54 53.69 54.04 54.12 53.75 53.90 53.52 52.80 53.06 54.44 56.06 55.58 54.77 54.07 52.11 42.67 45.61 45.50 50.33 52.77 51.44 52.27 49.45 51.38 49.96 49.85 48.29 44.25 42.33 41.09 35.30 35.97 36.75 38.81 38.95 41.25 42.17
52.51 52.84 53.67 53.88 53.94 54.10 54.15 54.19 53.65 53.09 53.09 53.32 53.52 54.07 53.58 53.22 53.45 53.03 52.97 54.27 49.72 47.42 49.81 44.16 43.53 43.36 44.98 49.51 51.54 50.40 50.78 49.68 50.53 48.07 43.26 46.26 41.96 40.29 44.10 43.90 42.70 40.56 38.69 38.29 38.99 43.59 42.16
52.49 52.78 53.09 53.55 53.77 54.06 54.01 54.05 53.44 53.13 53.09 53.11 52.98 53.66 53.22 52.85 53.45 52.85 52.25 47.96 49.66 46.76 41.22 47.73 47.57 46.65 48.34 49.30 44.16 47.59 51.80 45.64 45.42 41.94 45.01 42.02 40.28 45.68 46.73 45.49 43.79 41.66 39.56 40.34 42.84 44.74 44.46
52.24 52.53 52.69 53.13 53.32 53.63 53.99 53.98 53.46 53.01 53.07 52.74 52.72 52.99 53.06 52.62 52.70 51.27 48.93 48.15 52.88 51.78 41.52 42.98 46.27 45.65 46.17 47.67 43.20 44.31 49.69 45.61 42.25 41.67 43.91 41.89 43.33 47.89 45.67 42.63 41.60 41.47 41.17 41.65 40.52 42.09 43.09
51.63 51.51 51.72 52.26 52.63 52.74 53.19 53.38 53.28 52.98 52.80 52.67 52.65 52.60 52.65 51.47 46.65 48.62 47.01 51.91 55.16 51.76 34.67 36.75 41.62 44.12 46.23 45.38 41.01 47.79 50.55 48.31 44.98 40.38 43.57 42.96 47.02 45.62 45.21 43.29 43.80 38.82 44.33 43.02 41.53 38.51 34.74
51.19 51.22 51.28 51.40 51.59 51.61 51.70 52.01 52.38 52.45 52.59 52.69 52.26 52.22 52.27 50.96 45.71 45.97 49.33 51.94 54.34 47.40 21.08 38.57 41.03 48.85 45.78 41.90 42.34 43.51 49.81 48.46 43.54 42.79 44.38 40.71 43.40 44.00 42.81 43.70 46.03 41.52 45.53 42.86 41.90 38.01 35.04
50.53 50.71 50.92 50.94 50.82 50.90 51.14 51.33 51.39 51.78 51.83 51.99 51.97 51.94 51.74 49.70 46.87 47.07 51.65 53.17 51.57 30.25 20.50 35.48 40.75 39.13 38.85 40.84 40.12 43.61 45.11 48.83 48.64 45.17 44.29 42.21 46.07 46.47 44.62 47.07 47.38 46.71 43.22 41.27 39.79 37.55 31.40
49.64 49.83 50.14 50.26 50.34 50.25 50.64 50.99 51.22 51.44 51.60 51.68 51.56 51.60 50.69 49.23 42.62 48.73 49.85 46.86 33.37 25.14 36.74 32.94 36.79 38.78 38.08 36.73 38.08 40.78 40.49 40.44 40.37 36.64 37.17 41.11 42.18 45.40 47.60 42.45 46.22 45.11 40.87 31.89 30.37 29.98 32.30
49.57 49.76 49.92 50.15 50.23 50.22 50.30 50.58 50.81 51.01 51.32 51.44 51.05 50.68 50.69 49.48 48.74 48.64 46.70 35.90 23.71 32.24 32.28 39.49 39.56 38.35 34.64 37.70 37.12 38.10 38.75 37.61 43.59 41.98 37.82 35.76 33.90 42.69 45.48 44.60 42.18 43.14 42.16 32.24 27.28 29.44 32.46
49.24 49.32 49.52 50.07 50.14 50.15 49.84 50.23 50.46 50.80 50.95 51.02 50.98 48.72 47.80 49.13 48.10 47.76 40.28 27.07 27.39 33.15 36.43 36.57 38.28 34.49 34.28 37.30 36.63 36.83 36.90 37.32 40.98 44.29 37.80 36.49 36.04 44.94 46.94 46.69 47.13 41.42 39.00 43.61 35.95 33.33 30.02
48.96 49.35 49.58 49.74 49.90 49.88 49.98 49.92 50.07 50.51 50.71 50.75 46.72 45.15 45.14 49.56 49.34 44.59 33.87 30.22 32.07 38.39 40.53 38.81 34.13 36.49 31.94 34.81 35.02 35.69 35.22 39.51 39.28 45.00 46.71 41.35 35.17 42.87 45.91 47.78 47.24 44.21 44.67 36.85 36.09 29.88 29.46
48.75 48.96 49.23 49.32 49.65 49.57 49.96 49.85 49.78 49.88 50.18 50.58 45.04 39.01 45.47 49.15 48.00 38.85 28.02 30.93 33.92 38.01 40.91 38.16 35.62 35.74 36.06 34.97 36.87 35.07 36.53 39.15 41.51 43.08 47.16 43.54 39.03 37.75 44.04 42.28 41.18 41.58 40.56 39.81 39.49 34.25 30.77
48.04 48.55 48.79 49.01 49.21 49.29 49.47 49.76 49.52 49.61 49.57 48.39 42.17 33.52 45.57 47.53 35.73 33.39 29.05 32.83 37.90 37.50 41.81 41.12 41.20 38.81 37.11 37.63 36.53 35.75 36.32 39.17 43.78 45.14 42.23 45.57 40.41 35.69 38.94 43.72 46.98 45.90 43.00 42.70 34.90 29.68 31.09
47.81 48.07 48.47 48.80 48.88 48.95 48.81 49.15 49.26 49.34 49.07 44.64 37.99 37.05 45.32 44.84 29.76 28.99 32.19 33.94 36.64 36.62 37.86 39.34 38.72 40.69 40.38 38.13 33.23 38.14 39.03 43.78 44.73 44.24 43.53 45.15 37.31 30.83 34.00 39.07 41.34 40.85 42.45 43.40 41.32 33.95 35.00
47.39 47.77 48.13 48.56 49.06 49.17 49.17 48.81 48.81 48.90 48.94 45.06 38.45 29.66 33.90 39.92 37.22 31.38 29.38 31.50 32.24 38.07 38.72 40.82 40.71 41.92 39.65 39.27 38.86 36.32 38.26 43.28 45.10 44.97 47.62 47.18 39.99 36.23 31.82 34.18 39.98 37.83 41.10 42.85 41.49 35.90 35.74
47.15 47.63 47.86 48.51 48.87 49.35 49.60 49.56 48.95 48.77 48.73 45.06 38.27 31.49 35.15 29.16 31.22 31.01 32.40 32.66 31.54 31.36 37.83 41.20 38.80 39.69 38.34 35.96 35.08 37.61 38.85 39.98 41.76 44.62 46.32 45.32 37.42 38.75 39.21 38.37 41.64 41.05 40.54 40.79 39.94 40.49 36.06
46.85 47.51 48.15 48.43 49.23 49.69 49.56 49.52 49.56 48.76 48.45 42.80 34.07 31.43 35.40 33.22 33.18 31.01 32.19 30.68 31.11 34.32 36.15 35.40 36.87 38.31 39.24 36.45 38.86 34.75 37.67 37.88 38.81 40.99 43.26 43.44 33.28 37.34 35.59 40.48 40.71 37.96 39.73 40.94 41.03 41.49 41.25
46.78 47.24 48.10 48.47 49.24 48.87 48.71 48.82 49.15 49.00 47.94 41.21 40.57 39.18 35.69 33.56 31.93 29.64 29.44 30.55 32.39 36.53 37.98 40.15 39.96 38.08 37.99 39.57 42.22 42.50 41.92 41.80 41.60 40.24 40.12 41.28 36.41 35.07 34.03 39.11 38.86 34.91 38.69 39.66 40.76 42.81 42.94
46.54 46.93 47.48 47.79 49.26 48.71 48.33 48.18 47.96 48.99 47.95 41.93 40.01 38.57 32.73 29.76 30.93 30.27 31.87 33.37 32.98 35.48 35.22 39.22 41.40 39.24 41.40 44.66 44.08 42.91 41.48 41.53 42.15 41.13 42.13 38.50 38.56 36.02 33.16 36.60 29.60 37.96 42.62 44.69 42.07 43.48 44.51
46.16 46.74 47.06 47.27 48.76 48.74 48.25 48.02 47.87 48.08 48.30 43.59 42.03 38.13 31.45 28.69 32.15 31.91 32.14 32.67 34.97 36.36 37.72 39.25 42.12 44.86 45.47 42.46 35.70 35.19 33.72 34.64 35.71 40.51 40.76 41.29 40.26 33.52 32.02 32.70 36.31 39.12 38.03 38.63 40.34 40.21 46.07
46.21 48.51 48.85 49.25 48.56 48.32 47.96 48.22 48.29 47.99 48.60 43.91 40.98 40.73 35.53 32.36 29.76 34.54 32.90 33.59 31.72 33.02 33.58 37.25 43.52 45.16 43.88 37.22 33.71 31.08 29.35 32.59 30.96 34.46 41.14 40.57 41.12 37.82 30.57 31.76 30.22 33.36 38.22 42.73 42.91 36.13 42.77
46.24 48.49 48.43 48.23 48.09 48.02 47.88 48.81 49.09 48.25 47.61 44.50 39.54 39.40 37.48 31.56 36.40 36.77 31.60 31.67 35.03 33.65 34.12 36.33 39.78 38.22 41.84 35.36 31.91 31.44 31.28 35.27 29.64 31.25 30.89 32.57 33.89 33.48 31.64 31.05 32.33 36.83 35.07 41.55 33.51 34.41 41.16
46.51 48.15 48.26 48.57 48.93 47.60 48.22 48.11 47.98 46.94 46.54 44.52 39.28 39.38 38.88 32.69 33.74 36.62 38.30 33.06 35.25 36.40 32.81 34.99 36.90 35.53 34.61 33.46 33.65 31.49 31.49 32.15 32.09 34.36 32.74 32.25 30.79 31.10 30.55 29.41 30.79 38.20 35.56 35.08 38.03 33.36 34.87
46.65 47.76 48.05 48.16 47.93 48.05 47.25 46.85 46.54 46.96 46.79 45.50 38.11 38.54 38.35 33.75 30.19 36.64 39.24 40.96 40.59 38.23 37.62 37.14 38.06 35.80 37.63 34.52 33.52 33.16 30.94 31.70 32.38 28.77 36.70 32.00 33.89 32.43 33.87 33.51 37.28 36.43 34.42 34.28 34.52 35.63 34.70

GFSGBSN_sfc_wetblb_240.txt.gz
Wetbulb
52.17 51.51 51.69 51.91 52.41 52.37 52.35 52.80 53.41 54.17 54.26 54.17 55.12 54.94 54.68 54.65 55.33 55.58 56.08 55.97 58.14 58.59 57.85 57.87 57.93 57.47 56.20 50.44 50.11 57.45 61.42 62.61 59.27 57.77 56.03 55.33 54.19 53.97 51.21 51.69 53.03 52.19 53.04 54.34 55.04 54.99 54.77
52.46 53.02 52.51 52.71 52.85 52.89 52.83 52.75 53.38 54.02 54.17 54.31 54.16 54.91 54.83 54.82 55.05 54.91 55.13 55.27 55.37 57.56 57.46 57.67 57.88 56.34 53.20 45.06 55.33 57.29 57.62 58.70 58.71 57.56 56.63 56.29 54.95 55.85 52.82 51.71 51.99 53.35 53.07 53.42 54.28 54.39 54.78
51.64 52.57 52.92 53.31 53.19 52.85 52.93 53.68 53.75 53.80 54.12 54.18 54.36 54.40 54.68 54.48 54.70 54.23 54.29 54.15 54.66 55.55 57.42 57.61 57.53 56.08 50.99 49.07 56.08 57.76 57.09 56.10 57.03 57.03 56.15 57.06 56.53 53.36 54.01 51.77 54.49 53.49 50.85 52.85 53.78 54.20 53.61
52.46 52.76 53.08 53.83 53.97 53.94 53.92 54.22 54.08 53.69 54.01 54.03 54.18 54.31 54.54 54.17 54.19 53.76 53.70 53.70 53.90 55.31 57.13 57.52 56.78 54.98 47.15 55.82 57.97 55.66 56.15 55.85 56.96 57.36 56.11 57.53 58.39 55.90 55.03 55.74 53.67 51.16 51.81 48.69 53.03 54.10 54.06
53.47 53.70 53.81 54.22 54.25 54.30 54.24 54.32 54.19 53.93 54.14 54.09 54.09 53.92 53.98 53.82 53.53 53.37 53.29 53.15 53.84 55.35 57.14 56.78 54.29 52.20 46.60 55.87 52.43 54.60 56.09 52.00 54.07 55.88 56.82 57.25 57.62 54.90 54.76 50.87 49.40 50.40 46.03 48.07 50.58 53.82 52.86
52.98 53.05 53.07 53.60 53.88 53.93 54.28 54.27 54.43 54.35 54.23 54.07 54.03 53.96 53.68 53.80 53.37 52.62 52.48 52.91 54.81 56.63 56.16 54.89 53.55 46.86 49.80 47.05 52.09 53.66 56.15 54.50 51.69 53.61 52.87 54.33 54.43 51.90 51.51 49.97 43.56 45.75 45.71 48.14 48.45 52.06 52.09
52.51 52.60 52.60 52.73 53.41 53.00 53.21 54.18 54.19 54.11 54.02 54.02 54.04 53.82 53.61 53.39 53.27 52.58 52.60 53.38 50.82 49.16 50.89 46.50 48.73 48.99 48.86 52.27 53.83 52.26 54.13 52.77 51.44 51.02 47.88 52.02 49.06 47.14 49.48 50.79 50.55 49.54 48.27 47.76 50.16 51.92 50.77
51.66 51.74 51.90 51.98 52.05 52.30 52.70 53.31 53.44 53.43 53.78 54.04 53.80 53.70 53.45 53.21 53.25 53.11 53.16 48.02 48.22 48.61 43.46 49.18 49.56 49.24 50.85 51.82 46.65 49.49 54.39 48.23 47.70 44.66 48.76 48.84 45.29 49.74 51.37 51.33 50.09 49.64 47.78 47.59 50.01 51.52 50.87
51.88 51.67 51.55 51.59 51.89 51.94 51.94 52.32 53.04 52.97 53.33 53.49 53.49 53.53 53.52 53.02 52.89 52.29 50.03 48.64 54.06 50.79 41.20 44.73 49.10 48.86 50.19 50.08 45.33 47.80 51.57 48.76 46.18 44.25 45.82 45.82 48.17 50.12 48.97 48.86 47.98 48.92 47.77 47.47 47.32 49.99 51.38
51.31 51.37 51.14 51.07 51.31 51.46 51.92 52.36 52.62 52.73 52.87 52.96 53.10 53.23 52.95 52.33 49.31 50.76 47.57 51.06 53.71 52.53 35.99 39.91 44.48 48.47 50.66 50.80 45.59 50.05 52.17 48.80 45.74 43.83 44.99 46.44 49.67 48.81 48.29 47.20 48.67 44.70 49.21 48.58 47.63 46.75 42.96
50.80 50.66 50.82 50.59 50.66 51.33 51.50 51.71 52.04 52.19 52.39 52.50 52.73 53.07 52.61 51.88 49.98 47.32 49.92 53.03 54.75 51.23 24.06 41.48 45.28 53.36 51.37 47.66 50.88 48.71 51.14 48.97 43.98 43.44 44.99 43.77 46.05 46.31 46.65 47.50 49.20 46.57 49.84 48.23 47.74 46.78 46.57
48.88 49.24 49.12 49.52 50.16 50.25 50.54 50.79 51.01 51.44 51.69 51.76 52.26 52.34 52.14 51.64 52.17 51.25 54.45 54.48 51.08 34.30 22.60 37.88 44.20 43.94 43.82 46.01 48.09 50.07 47.17 50.08 50.02 44.58 44.87 45.22 49.68 48.85 48.66 50.04 49.89 50.49 48.55 48.39 48.46 46.75 40.13
48.60 48.29 48.47 49.17 49.80 50.08 50.30 50.42 50.26 50.61 50.97 51.30 51.43 51.67 51.86 53.69 46.38 52.72 53.28 46.79 33.07 27.68 38.23 36.25 39.51 43.18 42.79 42.41 43.21 46.00 43.52 41.63 41.71 38.82 38.73 43.35 44.16 48.35 49.51 46.61 49.50 48.99 45.99 39.28 38.01 38.11 37.80
49.03 48.55 48.31 48.67 49.74 49.94 50.00 49.94 50.03 50.22 50.49 50.62 50.63 50.85 51.41 53.19 54.06 53.66 48.20 35.60 24.92 33.63 35.06 42.09 42.10 42.34 39.79 42.78 42.38 43.34 42.21 40.06 44.05 44.42 42.59 39.06 36.56 44.40 48.75 47.24 45.10 45.60 44.52 38.65 31.61 35.19 38.90
47.78 48.55 48.67 48.37 48.69 49.41 49.54 49.84 49.78 49.89 50.34 50.29 50.51 51.28 50.57 52.83 53.58 49.86 39.27 28.12 29.67 33.31 37.79 38.01 40.12 37.27 38.07 41.49 42.10 41.86 41.49 40.82 43.94 44.79 40.81 41.39 40.17 48.37 47.33 49.39 48.07 45.60 42.47 47.17 38.15 40.56 38.06
47.24 47.86 48.40 48.28 48.74 48.84 49.14 49.59 49.99 50.19 50.47 50.27 49.21 47.56 46.74 52.97 53.35 45.49 34.22 31.09 33.63 38.97 39.35 40.40 34.94 39.20 36.30 38.85 38.83 39.18 40.17 43.35 43.15 46.13 48.06 45.17 40.62 46.20 46.96 48.20 48.57 47.27 48.91 39.66 41.43 33.22 32.77
46.68 47.08 47.57 48.15 48.17 48.39 48.94 49.06 49.76 49.87 50.25 50.09 46.82 39.98 47.64 53.23 50.52 39.98 29.80 32.07 36.20 40.10 40.65 37.74 37.38 36.87 38.15 38.70 38.96 38.74 39.82 43.57 45.44 44.91 47.06 45.45 42.93 43.81 46.21 44.07 43.62 44.29 43.42 44.43 44.47 41.94 36.83
47.41 47.46 47.46 47.61 47.98 48.13 48.32 48.97 49.48 49.70 49.76 48.56 43.23 33.58 47.44 52.34 35.94 34.85 32.00 35.94 38.95 38.72 40.54 39.09 39.12 38.63 37.90 39.28 37.67 39.17 39.43 42.62 47.21 46.82 42.17 45.87 43.75 38.18 42.57 47.94 48.57 47.54 44.93 45.51 38.32 37.84 42.15
47.01 46.97 47.21 47.44 47.63 47.81 48.00 48.55 49.11 49.35 49.46 47.42 38.58 38.22 46.56 46.56 30.15 31.28 35.79 36.05 38.88 37.84 37.79 37.59 36.87 39.40 40.54 38.11 34.12 39.37 41.61 46.44 46.90 45.54 43.01 46.54 39.98 35.80 37.05 43.45 47.11 45.04 46.43 46.77 46.44 45.53 40.87
46.42 46.51 46.79 47.05 47.38 47.70 47.72 48.33 48.52 49.10 49.35 47.11 39.22 31.20 36.45 40.65 41.66 35.34 33.19 34.99 34.69 40.01 37.70 38.44 38.00 39.16 38.34 36.91 38.96 37.77 40.38 45.01 46.78 46.08 45.83 46.32 42.35 40.17 35.70 39.77 43.99 41.07 44.45 45.90 45.25 39.32 40.90
46.02 46.18 46.15 46.29 46.58 47.28 47.39 47.56 48.16 48.68 48.99 45.50 38.84 33.03 39.16 31.74 32.42 37.60 38.12 35.99 34.06 34.10 38.53 38.60 35.81 37.57 36.47 32.75 35.04 35.73 38.78 42.41 45.74 46.72 45.95 43.11 38.70 41.43 43.12 44.76 43.87 43.44 43.99 44.81 43.85 45.18 40.86
46.01 45.89 45.65 45.79 46.03 46.66 46.89 47.12 47.52 48.08 48.50 42.58 33.77 34.17 39.76 38.22 38.88 34.84 35.91 34.93 34.92 36.38 36.51 34.10 35.07 38.15 38.65 35.40 36.88 34.63 38.60 39.55 40.48 44.53 44.80 45.88 37.95 41.98 39.60 42.80 42.86 41.84 43.64 45.00 45.61 46.58 45.45
45.74 45.72 45.57 45.97 46.21 46.28 46.28 46.63 47.24 47.98 47.66 42.34 41.77 42.15 40.42 37.18 36.96 33.25 33.73 35.04 36.38 38.77 39.06 39.81 38.32 37.94 37.15 39.10 42.67 44.28 44.64 44.29 43.17 41.23 41.76 42.50 40.59 38.98 35.09 40.61 39.76 35.65 42.56 43.28 44.47 47.18 47.28
45.48 45.62 46.06 46.23 46.03 46.50 47.10 46.89 47.19 47.62 47.75 44.73 42.50 40.29 36.15 32.52 36.31 34.93 35.96 36.91 36.00 37.86 37.24 39.21 40.74 38.27 41.81 46.25 45.21 44.49 42.81 41.89 40.52 39.14 38.81 41.88 40.59 40.32 35.06 38.45 28.48 41.34 47.13 46.27 44.16 46.05 47.62
45.21 45.75 46.15 46.16 46.58 46.80 47.29 47.86 47.88 48.22 48.27 45.85 45.64 39.60 35.99 31.31 35.09 35.54 36.03 37.04 38.89 39.35 38.02 38.58 40.84 43.09 45.98 43.02 37.68 33.18 32.73 32.76 35.50 40.11 38.62 38.51 39.84 36.92 33.73 34.04 38.62 42.11 44.56 44.54 43.15 44.19 48.07
45.03 45.43 45.76 46.36 46.87 47.19 47.53 47.99 48.69 48.95 49.07 47.49 45.47 42.62 38.50 33.60 32.58 37.98 35.84 38.02 36.05 35.15 35.74 38.01 43.26 47.21 44.77 40.52 36.10 28.27 26.68 30.43 29.72 33.95 41.26 39.03 37.71 36.09 33.04 31.58 30.83 41.47 46.41 49.46 48.53 39.65 49.19
44.96 45.12 45.78 46.31 46.66 47.55 48.21 48.44 48.66 48.94 49.09 48.26 44.78 43.17 38.24 32.66 39.07 38.72 36.39 35.98 40.02 37.60 35.61 38.36 39.16 40.40 43.04 34.89 31.77 30.57 29.68 34.59 27.76 28.03 32.38 35.33 34.44 31.25 31.65 31.71 39.34 46.69 46.73 50.38 37.23 41.94 50.70
44.48 44.79 45.34 46.18 47.20 47.93 48.14 48.44 48.73 48.71 48.77 47.50 42.62 43.92 40.46 33.95 38.00 41.71 43.01 40.07 39.97 38.64 35.87 38.12 37.17 37.87 36.82 31.38 32.25 32.82 30.47 33.83 33.07 35.86 36.51 35.11 32.81 32.30 32.65 31.41 31.15 48.72 46.82 42.89 47.71 42.58 45.63
44.35 44.36 45.28 46.66 47.46 47.97 48.07 48.36 48.70 48.50 48.72 48.50 39.90 43.84 44.40 39.37 38.72 44.65 45.94 46.31 45.21 44.39 41.86 41.65 38.75 38.75 38.96 35.52 36.36 36.16 32.34 32.46 31.19 30.47 40.44 33.99 38.98 37.82 38.64 39.44 46.23 47.69 48.94 46.64 44.86 45.91 43.88

GFSGBSN_sfc_wetblb_246.txt.gz
Wetbulb
51.94 52.29 52.64 52.53 52.47 52.58 52.33 52.68 52.92 53.07 53.18 53.25 53.57 53.93 54.35 54.60 54.85 54.43 54.87 54.76 55.11 55.19 57.24 59.22 59.07 58.44 55.74 50.80 50.05 58.07 61.29 63.38 60.33 60.07 57.65 55.86 54.64 54.58 52.31 53.97 54.86 53.09 54.15 55.54 56.22 55.88 55.65
52.55 52.13 52.35 53.36 53.15 53.25 52.78 52.68 52.65 52.65 52.65 53.05 53.29 53.54 54.24 54.24 54.45 54.35 54.48 54.56 54.54 54.81 55.70 58.39 59.08 57.87 53.29 47.07 56.03 57.23 56.89 56.52 57.84 58.70 57.16 56.62 54.73 56.41 54.53 54.26 53.81 55.12 54.44 54.60 55.17 55.30 55.65
52.39 52.60 52.13 52.99 52.71 52.65 52.96 52.93 52.79 52.61 52.88 53.12 52.99 53.56 53.71 54.20 54.19 54.14 54.32 53.84 53.65 54.35 55.26 57.22 58.74 56.74 52.53 52.07 58.57 57.17 57.02 56.14 56.85 57.77 56.61 58.44 57.86 55.64 56.03 53.40 56.31 55.28 51.83 53.19 53.66 54.25 54.06
51.88 52.35 52.39 53.56 53.98 53.96 53.77 53.82 53.51 53.48 53.65 53.59 53.58 53.43 53.76 54.18 54.27 54.25 53.88 53.35 53.02 53.84 55.03 57.00 58.01 56.44 51.67 60.81 60.34 58.62 58.31 54.98 56.79 56.95 57.10 58.81 59.55 56.35 54.61 56.10 53.84 51.74 52.45 47.87 52.55 53.60 54.11
52.88 52.96 53.32 54.23 54.37 54.31 54.61 54.88 54.69 54.20 54.04 54.17 54.17 54.10 53.87 53.99 54.06 53.80 53.49 53.10 53.08 54.70 55.50 57.08 55.20 54.53 51.32 60.08 56.37 57.54 56.89 53.30 53.63 54.61 55.80 57.73 57.52 54.35 54.06 49.93 47.94 49.26 45.68 47.66 49.44 53.64 52.96
53.06 53.44 53.53 53.69 53.96 53.79 53.76 54.11 54.48 54.64 54.66 54.76 54.30 54.34 54.29 54.05 53.76 53.41 52.63 52.38 53.55 56.45 56.82 56.38 54.81 50.29 53.95 53.06 56.96 57.83 59.09 56.06 52.09 51.31 51.61 51.95 52.60 49.81 50.00 47.88 41.82 44.16 45.31 48.03 48.06 51.34 52.50
52.96 53.31 53.30 53.48 53.04 52.90 52.94 53.07 54.18 54.11 54.41 54.49 54.72 54.47 54.35 53.90 53.61 53.29 51.87 53.19 52.48 50.50 51.15 48.84 50.81 50.32 52.07 56.56 56.85 54.31 55.64 54.13 52.52 49.65 45.25 48.88 45.91 44.21 46.70 49.00 48.76 48.32 47.55 46.67 49.56 52.00 51.21
52.44 52.35 52.28 52.33 52.11 51.95 52.12 52.56 53.63 53.70 54.01 54.33 54.27 54.47 54.21 54.02 53.65 53.43 52.12 49.74 50.87 49.84 42.76 50.56 50.43 52.49 54.86 55.66 50.38 52.65 54.97 49.55 48.97 43.98 46.39 45.35 43.30 48.07 49.43 49.05 48.56 48.15 46.66 46.69 49.96 51.51 51.14
51.88 52.07 52.01 51.76 51.89 51.89 52.06 52.30 53.22 53.19 53.31 53.51 53.70 54.11 53.88 53.76 53.49 52.34 51.53 50.99 55.02 53.79 42.30 43.71 48.20 48.34 51.09 54.27 50.51 50.23 51.78 49.44 47.31 44.81 44.98 42.76 45.62 49.07 48.18 47.34 46.45 47.01 46.66 47.53 47.06 49.85 50.93
51.69 51.71 51.38 51.13 51.00 51.28 51.64 51.97 52.61 52.81 52.93 53.02 52.96 53.20 53.12 53.26 48.78 51.71 50.11 53.99 54.11 52.81 37.81 39.40 43.21 47.48 49.77 51.41 47.42 55.20 55.13 49.97 46.19 43.40 45.71 45.00 47.77 46.69 46.54 45.73 47.48 44.67 49.15 48.37 47.59 46.45 42.66
51.45 51.04 50.78 50.53 50.63 51.31 51.52 51.35 51.56 52.12 52.68 52.81 52.77 52.85 52.78 51.81 51.99 49.45 51.19 54.54 55.10 52.06 25.24 42.37 43.76 53.17 51.38 47.73 48.48 49.70 55.52 51.54 44.43 45.29 45.09 43.03 45.13 45.20 44.50 45.73 48.18 45.80 49.40 48.00 47.61 46.04 45.83
50.23 49.83 49.27 49.44 49.82 50.30 50.71 51.13 51.37 51.72 52.17 52.26 52.32 52.59 52.37 51.58 52.01 53.65 54.76 54.93 53.02 37.87 24.69 38.20 45.12 44.69 45.74 46.71 47.69 50.20 50.97 53.04 51.43 45.67 46.61 45.82 50.28 48.80 47.44 48.44 48.35 49.19 47.69 47.89 47.56 45.28 39.66
49.65 49.24 48.83 48.70 49.20 49.68 49.72 50.39 50.64 51.08 51.41 51.60 51.86 51.81 51.21 53.66 48.17 54.30 55.26 50.01 36.10 28.61 40.21 37.38 40.32 44.70 44.36 43.61 45.16 46.52 45.35 45.53 42.49 38.65 39.06 43.97 44.96 48.94 50.16 46.36 49.08 47.21 44.13 37.54 37.34 37.92 37.05
49.67 49.76 48.98 48.98 49.08 49.69 49.82 49.87 50.15 50.68 50.82 50.88 50.87 51.00 50.88 51.36 54.23 55.70 52.32 40.58 27.95 34.49 35.63 41.88 41.17 41.93 39.74 42.70 43.78 44.29 43.81 41.34 45.89 44.07 41.21 38.50 37.10 45.24 48.44 46.28 44.65 44.81 44.19 37.19 31.74 34.64 38.99
49.20 49.05 49.03 48.97 49.05 49.41 49.28 49.57 49.95 50.22 50.48 50.54 50.38 49.53 49.44 52.38 55.27 54.53 44.14 30.06 32.17 35.05 39.16 38.50 39.53 36.75 37.33 40.86 41.92 42.22 42.36 42.30 44.69 46.07 39.20 38.13 38.81 47.81 48.90 49.34 47.63 44.31 40.28 46.53 40.48 42.79 38.26
48.75 49.21 49.02 48.69 48.88 49.06 49.20 49.21 49.53 49.75 50.18 50.30 47.41 46.78 46.97 54.11 55.64 49.26 37.34 31.97 35.60 40.61 41.05 40.04 34.53 37.57 34.44 37.10 37.59 38.30 39.99 45.00 44.36 47.27 48.30 44.31 37.35 45.09 47.03 49.39 48.57 45.86 47.53 38.62 39.78 31.08 30.60
49.19 49.00 48.63 48.16 48.52 48.50 48.74 48.87 49.20 49.49 50.04 50.17 47.13 40.46 48.44 54.63 52.25 41.99 31.76 32.18 37.47 41.77 41.85 38.54 36.78 36.11 36.53 36.29 37.99 37.36 38.14 41.96 44.72 45.01 47.13 45.80 41.44 40.83 44.99 43.07 42.85 43.95 42.39 42.96 42.22 38.45 32.64
48.63 48.40 48.35 48.17 48.14 48.39 48.39 48.46 48.87 49.15 49.61 48.21 44.55 34.38 48.95 52.94 37.98 37.42 32.43 35.77 39.52 39.83 42.86 40.25 40.25 38.43 36.48 37.52 36.53 37.03 37.37 40.45 46.57 47.21 41.90 44.54 40.48 36.56 39.29 47.02 48.32 46.44 44.36 44.07 36.27 35.09 38.20
48.36 48.16 48.12 47.77 47.25 47.94 48.21 48.47 48.77 48.79 49.10 47.44 39.54 39.87 48.33 48.67 31.83 32.39 35.92 35.88 38.22 37.48 39.21 38.94 38.01 40.04 40.38 37.61 34.33 37.38 38.87 43.16 44.72 45.03 41.53 43.27 38.78 34.34 36.62 41.63 45.83 43.18 45.14 45.99 43.30 42.98 38.05
48.17 47.95 48.05 47.21 46.82 47.30 47.59 47.69 48.08 48.66 49.04 47.27 39.80 31.95 37.45 42.78 41.54 36.27 33.22 34.14 34.10 39.88 38.90 40.00 39.78 40.96 39.09 38.20 39.97 36.75 37.40 41.82 44.45 43.86 45.19 45.13 38.33 35.43 32.05 36.59 41.02 39.20 43.40 45.20 43.85 37.45 38.46
47.61 47.58 47.44 47.58 47.38 47.30 47.25 47.30 47.53 47.87 48.49 46.18 39.08 32.72 39.10 32.18 34.23 36.62 37.12 35.21 33.64 33.93 39.40 40.51 38.20 38.90 37.38 34.50 36.92 36.72 39.07 40.29 42.76 44.15 43.83 42.99 35.83 37.26 38.39 38.78 40.93 40.61 40.53 42.19 42.60 43.28 39.38
47.26 47.19 47.11 47.02 47.04 47.23 47.19 47.19 47.21 47.47 47.91 42.07 34.25 33.43 38.40 38.25 39.47 35.55 35.20 34.95 34.50 35.98 37.20 36.53 36.14 38.37 38.66 35.09 37.58 35.83 38.41 39.03 39.35 42.11 41.02 43.25 34.41 37.56 34.18 38.35 37.61 36.78 41.08 42.02 42.54 43.79 44.47
46.79 46.81 46.76 46.73 46.87 47.05 46.97 46.99 47.05 47.17 47.24 40.90 41.39 42.46 39.25 37.29 37.60 36.04 35.27 35.38 35.96 38.56 40.08 41.08 40.07 38.64 37.28 39.23 42.80 44.04 44.46 43.11 42.06 38.98 36.29 37.27 36.45 33.91 29.32 35.47 34.90 28.55 37.73 41.02 42.53 44.65 44.13
46.68 46.64 46.65 46.59 46.61 46.61 46.82 46.91 47.07 47.26 47.25 44.53 42.88 41.66 35.71 31.18 35.84 35.92 37.36 38.30 37.00 38.03 37.41 40.22 41.61 38.76 42.22 46.52 44.87 44.28 42.92 41.40 42.02 40.72 41.41 35.69 34.82 34.26 29.31 32.30 23.15 35.16 41.74 42.66 42.82 44.04 46.43
46.30 46.27 46.24 46.12 46.10 46.26 46.50 46.62 46.67 47.01 47.08 45.32 43.64 40.82 37.24 30.97 35.20 35.77 36.27 37.69 39.56 40.94 38.82 40.33 42.66 44.96 46.89 43.18 36.18 32.60 33.70 33.97 35.35 39.74 39.40 41.00 36.48 31.80 27.58 28.07 31.66 34.39 38.90 39.58 39.85 41.47 46.45
45.75 45.80 45.12 45.53 45.85 46.17 46.19 46.22 46.31 46.64 47.15 45.57 44.04 44.89 39.49 33.26 32.74 37.54 36.33 38.23 35.77 37.06 38.23 40.37 45.44 47.84 44.75 39.02 33.76 28.03 24.80 29.12 30.08 33.70 40.63 40.19 39.17 33.80 31.33 24.91 21.48 33.33 39.40 42.38 43.92 31.89 44.40
45.25 44.94 44.59 45.25 45.49 45.49 45.82 46.01 46.20 46.66 47.01 46.04 44.66 46.93 41.34 33.43 37.47 39.03 34.27 35.51 39.11 38.15 36.85 40.06 41.66 41.02 44.23 36.39 31.30 29.44 28.24 32.93 27.50 27.88 29.31 31.61 33.27 29.34 29.58 26.88 30.98 39.23 41.98 45.55 32.31 35.02 47.29
44.81 44.69 45.00 44.99 45.06 45.42 45.79 46.07 46.28 47.01 47.45 46.22 44.54 46.97 42.00 35.90 37.48 40.96 41.42 38.61 40.08 38.96 35.41 39.08 38.09 38.80 37.35 32.44 31.75 31.98 30.02 31.49 31.25 33.72 32.70 30.59 28.85 28.93 31.43 27.95 25.11 41.94 40.94 35.08 41.39 47.19 48.87
44.38 44.66 44.60 44.57 44.67 45.19 45.40 45.75 46.72 47.47 48.47 47.92 43.29 47.20 46.85 40.35 38.23 43.30 44.16 46.09 44.25 43.20 40.28 41.52 38.76 39.01 38.73 35.09 35.08 37.11 32.67 34.94 32.43 27.40 37.53 28.93 33.88 32.32 34.10 33.57 42.50 44.80 44.20 46.02 46.41 48.10 49.17